Location: Lac de la Montagne noire
(46.1952°N, 74.2701°W)
Time: 22:46:17
(UTC-04:00)

ISS - Visible Passes

Search period start: 25 March 2019 00:00
Search period end: 04 April 2019 00:00
Orbit: 408 x 411 km, 51.6° (Epoch: 26 March)

Date Brightness Start Highest point End Pass type
(mag) Time Alt. Az. Time Alt. Az. Time Alt. Az.
25 Mar -3.8 19:52:45 10° WSW 19:56:03 79° SSE 19:59:21 10° ENE visible
25 Mar -2.3 21:29:48 10° WNW 21:32:45 34° NNW 21:32:45 34° NNW visible
26 Mar -2.7 20:38:55 10° W 20:42:04 41° NNW 20:44:18 17° NE visible
26 Mar -0.7 22:16:09 10° WNW 22:17:04 16° NW 22:17:04 16° NW visible
27 Mar -3.2 19:48:02 10° W 19:51:18 55° NNW 19:54:34 10° ENE visible
27 Mar -2.3 21:25:20 10° WNW 21:28:19 30° N 21:28:31 30° N visible
28 Mar -2.3 20:34:27 10° WNW 20:37:28 32° N 20:39:54 14° NE visible
28 Mar -1.0 22:11:27 10° WNW 22:12:39 19° NW 22:12:39 19° NW visible
29 Mar -2.5 21:20:43 10° WNW 21:23:44 32° N 21:23:59 32° NNE visible
30 Mar -2.3 20:29:53 10° WNW 20:32:52 30° N 20:35:17 13° ENE visible
30 Mar -1.3 22:06:36 10° WNW 22:08:02 23° NW 22:08:02 23° NW visible
31 Mar -3.1 21:15:52 10° WNW 21:19:03 42° NNE 21:19:19 41° NNE visible
01 Apr -2.6 20:25:07 10° WNW 20:28:11 34° N 20:30:35 15° ENE visible
01 Apr -1.7 22:01:41 10° WNW 22:03:20 27° WNW 22:03:20 27° WNW visible
02 Apr -3.8 21:10:56 10° WNW 21:14:14 70° NNE 21:14:37 61° ENE visible
03 Apr -3.2 20:20:11 10° WNW 20:23:24 49° NNE 20:25:54 15° E visible
03 Apr -1.8 21:56:53 10° WNW 21:58:39 24° W 21:58:39 24° W visible
